Theta_e
275 274 274 273 273 273 273 273 272 272 272 272 271 271 269 268 265 263 263 266 266 269 270 268 270 271 271 271 271 271 270 272 274 272 272 272 272 275 277 279 281 282 282 283 284 285 286 287 287 287 288 290 290 290 290 290 291 292 289 290 292 292 292 293 293 293 295 295 296 296 297 297 298 299
275 274 273 273 272 273 272 272 272 272 272 271 271 271 271 270 267 266 264 265 268 268 270 270 269 270 270 270 271 271 271 274 274 272 272 271 271 275 277 278 280 282 282 283 283 284 285 286 286 286 287 288 289 289 290 290 289 290 290 290 291 293 291 292 293 293 294 295 295 295 296 297 297 298
274 274 273 273 272 273 272 272 272 272 272 271 271 271 271 271 269 268 266 264 268 270 268 269 270 270 270 271 271 271 271 273 273 272 271 271 274 276 275 277 278 280 281 282 283 283 284 284 285 285 286 287 287 288 289 290 289 290 291 289 290 292 291 291 292 292 292 293 294 295 296 296 297 297
274 273 272 272 272 273 273 272 272 272 272 272 271 271 271 270 270 269 267 265 265 269 269 270 270 271 271 271 270 270 271 272 274 271 271 271 274 272 272 275 277 278 280 281 282 282 283 283 283 284 285 286 287 288 288 288 289 288 289 292 290 289 290 291 291 292 292 293 295 296 297 297 297 298
274 273 273 272 273 273 272 272 272 272 271 272 271 271 270 270 270 269 267 265 266 268 271 270 270 271 271 270 270 269 270 270 270 272 271 271 271 271 271 272 275 277 279 280 280 280 282 282 282 283 285 286 287 287 287 287 287 288 288 288 289 290 290 291 291 291 292 293 294 296 296 297 297 297
274 274 272 272 272 273 271 271 271 271 271 271 270 270 270 270 269 271 268 267 266 265 269 269 271 270 271 268 270 269 269 269 270 270 270 271 271 271 271 271 272 276 278 278 279 280 282 282 283 283 283 283 285 286 285 286 287 287 286 286 287 288 289 289 290 290 291 292 294 295 295 296 296 298
274 273 273 272 272 272 271 271 271 272 271 271 270 269 270 269 269 270 270 267 266 266 267 269 269 269 270 269 269 270 270 270 270 269 269 270 271 272 272 272 272 275 277 278 279 280 281 282 282 282 282 283 284 285 284 283 284 285 285 285 286 286 287 287 288 290 290 291 292 294 295 295 296 297
274 273 273 272 272 272 271 271 271 271 271 270 270 269 269 269 269 270 270 269 267 267 266 268 268 269 269 269 270 270 270 269 269 269 269 270 271 271 272 271 271 273 277 277 278 279 280 281 281 282 282 282 282 282 282 282 282 283 283 284 285 285 286 286 287 288 289 290 291 292 293 295 295 295
274 273 273 273 272 272 271 270 270 270 270 270 269 269 269 269 269 269 269 268 268 267 266 267 269 269 269 269 269 270 268 268 269 269 269 270 271 271 271 271 271 274 276 276 276 276 277 277 279 280 280 280 280 281 281 281 282 282 282 282 283 284 285 285 286 286 287 287 288 289 291 291 291 291
274 274 273 273 272 272 271 270 270 270 270 270 269 268 268 269 268 267 267 268 267 267 267 267 267 268 267 268 269 270 269 267 267 268 269 271 271 270 269 270 270 270 270 269 270 272 273 275 276 278 278 279 280 280 280 281 281 281 281 281 282 283 283 284 285 285 286 287 287 287 288 288 289 289
274 274 274 273 272 272 271 270 270 270 270 269 268 268 268 267 267 266 266 267 267 267 267 267 267 267 269 269 267 269 269 268 268 267 268 268 270 269 268 267 268 269 269 271 274 273 274 275 274 276 277 278 279 279 279 279 280 279 280 281 282 282 283 283 284 284 285 286 286 286 286 287 288 288
274 274 274 273 273 272 271 271 271 270 269 268 267 267 267 267 266 266 266 265 265 266 266 266 266 268 268 268 269 269 268 267 267 269 268 266 266 266 267 267 266 267 268 268 269 271 272 273 273 275 275 276 277 277 277 277 277 277 278 279 280 281 282 283 283 284 284 284 285 285 286 286 287 287
274 274 273 273 272 273 273 274 273 272 272 268 267 267 267 266 265 265 265 266 266 266 266 266 268 267 267 267 267 266 265 265 266 268 268 265 266 266 265 266 268 268 268 268 268 268 268 268 268 269 269 270 272 272 275 275 275 276 278 279 279 280 281 281 282 283 284 284 285 285 285 286 286 287
274 273 273 273 274 274 274 274 274 274 274 274 270 268 267 267 267 267 267 267 267 267 266 267 267 266 266 266 266 266 267 268 268 267 266 264 264 264 264 266 267 268 267 266 265 267 269 269 269 269 269 270 271 270 270 270 272 274 276 277 278 279 280 281 281 282 283 283 284 284 285 285 286 286
273 273 273 272 273 274 274 274 275 275 275 275 275 274 273 272 270 268 268 268 268 267 267 267 267 266 266 267 267 267 267 267 267 265 265 264 264 263 262 261 265 268 267 266 265 266 269 269 267 268 268 269 269 270 270 273 275 276 277 278 278 279 279 280 281 281 282 283 283 284 284 285 285 286
273 272 272 272 272 272 272 272 273 274 275 276 276 276 276 275 275 274 271 269 269 269 268 268 267 266 265 266 266 266 266 265 265 265 265 264 264 263 263 263 262 266 268 266 265 265 268 269 267 267 267 268 269 269 272 275 276 277 278 278 279 279 280 280 281 281 282 282 283 283 284 284 285 285
273 272 271 270 271 271 273 273 271 270 271 274 276 276 276 276 276 276 276 276 273 271 269 267 267 266 267 266 266 266 265 266 264 265 264 265 265 265 264 264 265 266 269 267 265 263 266 267 266 265 267 268 268 268 271 274 275 276 277 278 279 279 280 280 281 281 282 282 282 283 283 283 284 285
273 272 270 270 269 270 271 271 270 270 268 269 268 267 264 263 267 270 271 272 273 272 268 266 265 267 267 266 267 267 268 266 265 265 265 266 265 265 265 266 266 267 268 264 263 261 263 266 265 264 266 267 267 267 270 273 275 276 277 277 278 279 279 280 280 281 282 282 283 283 283 283 284 285
273 272 271 271 270 270 270 271 270 268 267 267 266 264 262 260 260 260 261 262 264 266 268 268 268 268 269 268 268 269 269 268 268 268 267 266 265 264 264 264 264 263 265 265 263 259 263 265 264 264 265 266 266 266 269 273 274 275 276 277 278 279 279 280 280 281 281 282 283 283 283 284 284 285
273 272 272 271 270 270 269 272 274 271 267 267 265 264 261 260 261 262 268 271 271 270 270 270 270 270 271 273 271 271 271 269 268 266 265 264 262 261 259 258 260 259 263 265 263 261 261 264 263 263 265 265 264 266 266 271 274 275 276 277 278 279 279 280 280 281 281 282 282 283 283 284 284 285
272 272 272 271 270 269 268 272 275 274 271 267 266 264 262 262 262 265 267 272 273 273 274 274 274 274 274 273 273 272 272 268 266 263 260 259 259 258 256 256 256 257 260 263 264 262 260 262 262 262 263 264 264 265 266 267 271 274 275 276 277 278 279 279 280 280 281 282 283 283 283 284 284 284
272 272 272 272 269 268 268 273 275 275 272 268 268 267 264 262 264 266 265 266 266 270 270 270 270 270 269 268 268 266 265 266 265 260 257 258 256 254 254 254 255 257 259 260 263 260 259 261 262 261 263 264 264 265 266 267 269 273 274 276 277 278 279 279 280 280 281 282 282 283 283 283 284 283
271 271 272 272 270 269 270 274 275 275 273 269 268 266 265 264 263 265 264 262 259 258 259 258 256 255 258 255 253 254 262 263 262 257 255 254 252 252 253 254 255 255 257 262 264 259 259 260 261 261 259 258 262 264 265 266 268 269 271 271 272 275 277 278 279 280 281 282 282 283 283 283 283 282
270 270 271 272 273 273 274 275 275 275 274 269 268 268 265 264 264 263 261 260 260 260 257 255 252 252 252 251 251 251 251 253 254 255 255 255 254 254 254 254 255 254 256 261 263 259 259 260 259 262 261 258 257 261 264 264 266 266 267 268 269 273 276 277 277 279 280 281 282 283 283 284 283 282
268 269 269 270 273 274 275 275 275 274 274 273 270 268 265 266 267 264 258 258 259 253 250 250 251 251 251 251 250 250 250 252 252 253 254 255 255 254 253 253 254 254 257 260 264 261 258 260 259 261 260 261 261 260 262 264 265 266 268 268 269 271 273 274 275 275 278 280 282 283 283 284 284 283
268 269 269 269 273 275 275 275 274 274 273 273 269 269 270 271 269 260 256 252 249 249 248 249 250 251 251 251 252 252 251 252 253 252 253 253 254 255 255 255 254 254 255 260 264 261 259 258 259 259 260 259 260 261 261 262 264 266 268 269 270 272 274 275 274 274 274 275 277 280 281 284 285 286
268 268 268 269 274 275 275 274 274 273 273 272 269 272 271 269 267 259 251 251 248 248 248 248 250 250 250 251 252 252 252 253 253 253 253 253 254 255 256 257 258 257 258 260 261 261 261 260 262 260 259 261 260 261 261 260 262 266 267 269 271 272 273 274 275 274 274 274 275 280 282 284 285 285
268 267 266 270 275 275 274 274 273 273 272 269 271 270 269 266 261 251 249 247 247 248 248 249 249 250 250 250 251 252 252 253 253 253 253 253 254 254 256 257 259 260 260 261 262 263 263 262 262 262 262 261 260 259 260 263 264 264 264 268 270 271 273 274 276 276 275 275 275 277 278 279 281 283
267 269 272 274 275 274 273 273 273 272 271 271 269 268 265 258 249 248 246 247 246 247 248 248 249 250 250 250 251 252 253 253 253 253 254 254 255 255 257 258 260 261 262 263 264 264 264 263 263 263 263 263 262 262 262 261 263 264 266 266 266 268 271 273 276 276 276 276 276 277 278 279 281 284
272 273 274 275 274 273 271 267 263 262 266 269 268 264 258 247 248 246 246 246 246 247 247 248 249 250 250 251 251 252 252 251 251 252 253 254 255 256 256 257 259 262 263 264 264 264 264 263 263 262 262 262 262 262 262 262 262 264 266 266 267 269 271 272 275 277 277 276 277 278 280 282 283 284
271 272 272 271 270 269 269 267 267 266 263 257 253 248 247 246 246 247 247 246 247 247 247 248 248 249 250 250 251 251 251 251 252 251 253 253 253 255 256 256 257 260 262 263 264 264 263 263 263 263 261 262 263 263 263 264 263 264 265 267 267 265 269 274 277 277 278 279 279 281 282 283 284 286
271 270 270 267 263 261 259 257 254 252 249 250 250 246 244 245 248 254 257 255 246 245 245 246 247 248 249 249 250 251 250 251 252 252 252 253 253 254 255 255 256 258 259 261 262 263 263 263 262 263 263 264 264 267 268 265 264 265 266 268 270 270 271 272 277 277 279 281 282 282 283 284 284 285
263 262 261 260 259 259 257 254 252 249 248 246 246 246 244 243 244 244 243 245 246 246 246 247 247 248 248 249 249 250 250 252 252 252 253 253 252 254 254 254 255 256 256 258 260 261 261 262 263 263 265 267 269 269 267 265 266 266 266 267 269 272 276 277 279 279 279 281 282 283 284 285 286 286
263 262 261 260 259 257 255 254 250 249 247 247 247 248 255 248 245 246 246 245 245 247 247 247 246 247 247 248 249 249 250 251 251 253 255 252 252 252 253 254 255 256 257 257 259 260 260 260 261 262 266 270 271 270 269 267 265 266 266 267 268 269 272 274 276 280 282 282 284 284 284 285 286 286
262 260 259 257 256 255 255 253 252 249 248 248 248 247 246 245 249 249 246 246 247 247 247 247 247 246 246 247 248 248 249 250 251 251 251 250 251 252 252 253 254 255 256 257 258 259 259 259 259 259 261 264 268 270 273 270 267 265 266 266 267 267 268 272 275 280 284 285 286 284 283 284 285 286
260 260 258 256 255 254 254 252 250 249 248 248 248 246 246 247 246 247 246 248 245 245 245 246 247 246 246 246 247 248 249 250 250 250 251 251 251 252 253 253 254 255 255 256 258 259 259 258 258 257 257 258 262 263 266 271 271 267 265 264 266 267 268 271 275 279 280 284 286 286 284 282 284 286
259 258 257 256 254 254 254 252 251 249 248 248 246 245 248 247 246 245 246 247 245 246 246 247 245 246 246 246 247 248 248 248 249 250 250 250 250 251 252 253 254 254 254 256 258 259 258 257 257 257 256 256 256 257 261 266 268 271 267 265 265 266 267 270 272 274 275 277 282 283 285 285 285 287
258 257 256 255 255 254 252 251 250 248 247 247 246 245 245 244 242 242 242 243 246 245 246 243 244 246 245 246 246 247 247 248 247 249 249 249 249 250 251 251 252 253 253 255 257 258 258 257 256 256 256 255 255 256 258 261 263 266 269 267 265 266 267 268 269 269 271 274 276 276 282 286 285 286
258 257 256 255 254 253 252 251 251 251 247 247 247 247 247 243 242 243 245 246 245 244 244 244 244 246 245 244 246 245 246 248 248 248 248 249 249 249 250 251 251 253 253 254 256 257 257 256 256 256 256 256 255 256 258 258 260 264 266 269 267 266 266 268 268 269 270 270 272 277 283 283 284 284
258 257 256 256 254 253 252 251 250 250 250 249 249 246 246 248 244 244 244 246 245 244 242 244 246 246 243 244 245 244 244 245 246 247 247 248 249 250 250 251 251 251 252 253 254 255 255 255 256 256 257 258 259 261 262 262 263 264 262 265 270 268 267 268 268 268 268 270 272 277 282 284 283 285
256 256 255 253 253 253 253 251 251 249 249 247 246 249 246 244 244 242 242 244 245 243 244 242 241 242 242 243 243 245 245 247 246 246 247 247 249 250 251 251 250 251 250 252 253 253 254 255 257 259 260 260 261 263 262 258 258 258 259 261 266 269 270 270 270 269 268 270 271 272 273 274 278 278
258 256 254 254 253 253 253 252 250 250 248 247 247 249 245 243 243 253 251 250 244 243 242 242 241 243 243 242 243 245 244 246 246 246 247 247 247 248 250 249 249 250 250 250 251 252 254 256 257 258 259 259 259 258 256 256 255 256 258 260 261 265 268 270 272 273 270 270 270 268 270 271 274 274
259 257 255 253 252 252 252 252 250 250 249 247 247 247 245 245 244 249 245 243 241 243 242 242 240 240 241 241 242 244 244 245 245 244 246 246 246 246 248 248 248 249 249 250 251 253 254 255 256 256 257 257 256 257 256 257 256 256 256 258 260 260 263 267 269 272 272 272 273 272 272 272 271 270
259 257 254 253 253 252 251 251 251 249 249 248 248 246 246 248 247 246 245 243 243 243 240 241 240 241 241 242 242 242 244 245 244 244 245 246 246 246 247 248 249 249 250 250 251 253 253 254 255 255 255 254 255 255 255 257 256 256 255 256 259 258 259 262 264 268 270 270 271 273 274 275 276 276
259 257 255 253 252 252 252 251 251 249 249 248 247 247 247 246 247 245 243 241 240 239 241 241 241 241 240 243 244 245 245 250 246 244 245 245 245 247 246 247 248 249 249 249 249 251 252 253 254 254 254 254 255 255 255 257 257 256 255 255 256 257 258 260 260 262 264 264 268 271 272 273 274 275
Wind_Speed
9 7 13 11 8 6 7 7 8 8 7 8 8 8 9 7 8 5 6 6 6 4 6 5 2 7 5 5 6 5 4 8 13 9 10 10 11 17 25 27 27 27 28 27 28 29 30 31 32 33 33 33 34 33 35 36 36 35 37 35 35 36 35 35 35 32 30 30 30 30 28 29 29 30
8 8 7 10 9 9 9 10 9 8 8 8 8 8 8 7 9 7 9 10 4 4 4 6 5 3 4 4 5 5 7 11 15 11 11 12 12 22 25 26 27 27 27 27 27 29 30 31 32 34 35 34 34 33 34 36 36 35 37 37 35 33 33 33 33 32 31 30 30 29 29 29 29 30
9 10 9 10 10 9 10 9 8 6 8 9 8 8 8 8 9 8 7 12 4 5 5 4 4 5 5 6 7 7 7 10 14 12 11 12 18 25 21 25 26 26 26 26 27 29 31 32 34 33 34 34 33 33 33 34 36 36 37 36 35 34 33 32 32 33 31 31 30 30 29 29 29 30
8 10 10 13 11 9 7 7 8 8 8 8 8 8 8 8 8 7 8 11 13 5 6 6 7 7 8 7 9 9 7 9 17 11 11 13 20 15 12 21 25 25 26 26 27 30 32 33 33 33 33 34 33 33 34 35 36 36 36 36 35 33 34 34 32 32 31 30 30 31 30 30 30 31
10 9 11 9 9 9 10 9 8 8 8 8 8 8 8 8 8 8 9 11 13 7 6 7 7 6 5 9 7 11 8 10 10 12 11 12 11 12 12 12 20 24 24 26 29 31 32 32 32 33 33 34 33 32 33 35 36 35 35 35 35 35 35 34 32 31 31 31 31 31 31 30 30 31
12 11 14 12 13 11 11 9 10 9 9 9 8 8 9 9 8 8 8 9 9 12 4 8 6 7 5 10 5 9 11 11 11 12 11 10 11 12 12 11 10 19 24 28 30 31 31 32 32 33 33 33 33 32 33 33 34 35 35 34 35 34 34 33 32 31 32 31 31 32 31 31 31 31
13 14 13 13 12 10 10 10 8 8 9 9 9 9 8 9 8 8 9 7 9 11 10 5 9 6 6 8 9 9 10 11 11 13 12 11 11 10 11 9 9 17 25 29 30 31 32 32 32 32 33 33 33 33 33 34 33 34 34 34 34 33 34 33 31 32 32 32 31 31 31 31 31 30
13 14 13 14 13 11 11 10 9 9 9 9 9 9 8 9 9 8 7 8 8 7 11 5 7 6 7 8 8 9 9 10 11 11 13 12 12 10 8 9 10 15 26 29 30 31 32 32 32 32 32 32 32 32 32 33 32 32 33 33 33 33 33 32 32 33 33 32 31 31 31 31 30 29
14 14 14 12 12 12 11 10 9 9 10 9 8 9 8 8 7 5 6 7 6 7 10 10 6 5 7 9 9 8 9 9 10 11 13 12 10 9 8 9 12 21 28 29 31 30 30 30 30 31 31 32 32 32 32 33 33 32 32 33 33 33 33 33 32 32 32 33 32 33 31 31 30 29
13 13 13 12 13 13 13 11 10 10 11 10 9 9 8 7 6 6 6 6 6 7 9 10 8 5 9 9 11 9 8 9 12 12 12 12 10 9 11 11 10 10 11 13 15 18 22 25 29 30 30 32 32 31 31 32 33 33 33 33 33 33 33 33 33 32 32 33 33 33 33 31 30 29
13 13 13 12 13 13 12 12 11 11 10 9 9 9 9 7 6 6 6 6 7 8 9 9 9 10 7 7 14 10 7 10 11 14 15 15 11 10 11 14 10 10 16 21 26 23 21 25 22 28 33 33 33 31 31 31 32 33 33 33 34 33 34 33 33 33 33 34 33 33 32 32 32 31
12 13 12 12 12 12 12 12 11 11 10 8 8 8 7 7 7 7 6 5 6 7 8 9 8 8 9 7 10 14 11 10 11 9 10 15 11 8 10 12 14 12 13 15 12 15 18 20 25 30 30 31 30 30 29 31 33 35 34 33 33 34 34 33 33 33 34 34 33 32 32 32 31 30
12 12 11 11 11 12 14 17 14 13 11 9 9 7 7 7 7 7 6 7 7 7 8 8 8 8 8 8 7 8 8 10 11 6 4 10 10 13 16 11 10 13 14 14 14 14 11 14 13 12 12 13 19 23 28 26 32 33 32 33 32 32 32 33 33 32 33 34 34 34 33 32 31 30
12 12 12 11 16 17 19 18 19 19 19 17 11 9 8 8 8 7 8 7 6 6 8 8 7 7 7 8 9 11 10 9 9 9 8 13 14 14 17 18 10 11 11 15 15 12 9 11 13 11 13 9 12 13 12 12 17 26 31 32 31 31 31 32 32 33 32 33 32 31 32 32 31 30
11 11 11 8 14 15 16 15 20 19 20 19 19 18 16 13 10 8 9 7 7 7 7 7 7 9 11 10 8 10 10 8 9 8 10 11 14 12 14 19 11 4 8 11 14 18 10 13 16 16 12 14 13 13 17 25 31 34 33 33 32 32 31 31 31 32 32 33 32 31 32 31 31 30
8 9 11 10 8 9 10 10 12 15 18 18 18 18 18 19 21 17 10 7 7 7 6 5 6 7 9 11 9 9 8 9 10 10 11 11 13 16 16 16 19 11 12 16 17 20 12 11 16 18 14 12 13 14 21 32 32 31 32 31 32 31 31 31 31 31 30 31 31 30 30 30 30 30
9 11 11 9 6 8 15 12 8 7 8 14 17 18 18 13 11 13 15 15 9 4 8 8 10 9 9 9 8 7 9 10 15 14 12 12 15 16 18 21 17 17 10 15 16 19 17 11 16 18 14 12 12 15 21 27 29 30 30 31 31 32 32 31 31 31 31 31 31 31 30 31 31 30
10 13 11 10 10 7 9 8 9 8 7 6 4 2 2 1 1 3 6 8 13 13 7 7 10 9 8 11 12 12 12 14 13 11 10 10 12 12 14 19 20 18 11 14 16 21 17 7 14 18 13 10 13 12 19 27 27 28 29 29 30 31 31 31 32 31 31 30 31 30 30 30 30 30
10 12 10 11 10 9 9 8 9 8 7 6 5 4 3 1 1 1 2 4 4 5 7 8 10 11 10 10 11 12 12 12 10 8 9 9 12 13 17 16 16 17 12 15 13 19 14 6 13 16 12 12 13 11 17 24 26 29 29 29 29 29 30 30 31 31 31 30 29 29 30 30 30 29
9 10 11 11 9 9 9 12 17 12 8 8 6 5 3 1 1 4 6 9 10 10 10 8 8 7 10 16 14 14 13 12 11 11 11 11 13 13 14 17 11 11 8 10 13 16 16 10 14 17 11 12 14 12 12 20 25 27 28 29 29 29 29 30 30 31 31 30 30 30 29 30 29 28
7 9 10 10 8 8 8 13 17 16 14 7 6 5 4 4 3 4 4 10 14 14 14 16 19 20 20 20 23 24 25 17 13 10 9 11 7 9 13 16 12 14 6 7 10 14 17 12 12 16 11 12 14 14 14 13 21 27 28 29 30 29 29 29 29 30 30 30 30 29 30 29 28 28
8 9 15 11 9 9 9 15 16 17 13 7 7 5 4 4 5 4 3 2 2 8 11 12 14 15 17 20 20 19 18 17 13 6 10 6 4 10 10 15 15 15 11 11 10 13 13 12 9 13 13 14 12 12 13 13 13 20 21 25 26 26 27 28 29 29 30 30 29 29 29 28 26 18
7 8 13 15 12 10 11 17 17 18 12 6 6 6 4 4 4 6 3 2 3 3 4 5 6 9 9 8 8 10 17 17 13 6 7 7 6 9 10 11 13 15 7 1 3 4 8 10 11 10 13 14 13 7 10 10 9 9 10 12 15 23 25 26 26 28 29 29 29 29 29 27 23 13
7 8 8 13 18 17 18 18 18 16 14 7 5 5 4 5 7 2 4 2 1 2 3 6 4 7 7 7 6 6 7 8 6 8 7 7 7 9 10 10 10 12 10 2 9 11 13 10 15 6 10 11 13 7 7 12 12 13 13 14 13 19 23 24 22 26 28 28 30 30 29 27 24 13
9 8 8 6 16 18 18 18 16 14 12 10 6 6 4 6 4 8 4 0 1 1 3 4 5 6 6 6 6 5 6 6 6 6 7 8 8 9 10 11 12 14 16 13 17 10 13 10 13 10 10 10 15 15 14 11 13 11 12 13 14 14 12 12 10 12 18 28 30 30 28 27 29 20
9 9 8 7 14 19 18 16 14 13 11 12 6 7 10 9 9 6 4 2 1 2 3 5 6 6 7 7 7 6 5 6 8 6 7 7 8 9 10 11 13 13 17 9 15 14 14 14 11 12 11 10 15 12 16 15 12 10 12 12 13 13 11 10 8 10 11 10 12 19 21 28 27 28
9 8 8 8 17 18 17 15 14 12 12 9 8 10 6 9 10 7 3 4 2 3 5 4 6 6 6 7 9 8 9 7 6 7 7 8 9 10 10 12 14 16 17 15 13 13 12 14 11 11 13 11 14 15 14 14 15 8 8 9 10 12 11 11 11 10 9 10 12 20 24 25 26 25
9 9 8 10 18 17 16 15 12 11 11 8 10 8 10 8 8 4 4 3 3 4 4 4 5 7 5 5 7 8 8 9 11 11 10 9 9 10 11 12 14 16 17 17 15 13 13 11 11 11 13 12 11 12 14 15 13 14 12 11 9 9 9 10 10 9 9 10 9 10 9 11 13 14
9 12 18 20 18 16 14 14 12 10 13 13 10 10 10 8 4 5 3 3 4 4 3 4 5 6 5 5 7 8 9 11 10 8 8 7 8 10 12 13 13 14 13 12 11 11 11 11 13 12 11 11 11 14 12 16 11 12 9 12 13 9 7 10 11 9 8 9 10 10 11 10 10 11
19 21 21 21 18 14 10 8 9 6 7 10 10 10 8 5 4 3 4 3 3 1 3 3 5 6 7 7 7 8 8 7 9 9 10 12 12 10 10 11 10 8 8 9 10 10 10 11 12 12 12 12 11 13 13 12 13 11 10 10 12 13 13 10 10 10 9 9 10 10 9 9 10 8
12 17 14 9 12 12 16 14 12 11 10 9 7 5 4 4 3 3 3 3 1 1 2 4 4 5 6 7 7 7 7 8 7 5 8 8 9 10 10 9 11 11 7 6 8 8 10 11 11 11 10 11 9 11 12 9 11 11 10 9 10 10 10 9 8 8 8 8 8 9 7 9 9 10
10 10 12 13 9 9 9 8 7 6 6 6 6 4 2 1 2 3 4 5 1 1 2 3 3 5 5 7 7 7 7 7 7 6 7 7 10 9 9 9 11 12 14 12 8 8 9 9 11 9 9 9 7 7 6 5 7 8 11 11 10 11 11 11 8 7 8 7 9 9 10 10 10 9
10 10 9 8 8 7 7 6 6 5 5 3 2 2 1 1 2 3 4 1 1 1 0 2 4 5 6 6 5 6 7 7 8 8 7 5 8 9 6 7 8 10 13 14 13 13 14 15 13 10 9 8 6 3 8 8 8 8 9 10 10 9 6 9 8 7 7 9 10 9 10 9 8 8
11 8 8 7 8 8 7 6 6 6 5 5 3 2 4 3 1 2 1 1 1 0 0 1 2 4 4 6 6 6 7 9 7 7 8 8 8 8 10 10 10 10 10 12 12 13 14 17 15 13 11 6 6 4 7 7 9 9 9 9 9 8 6 7 4 4 9 10 9 9 8 7 6 6
10 9 8 7 6 6 7 7 7 6 6 6 5 5 2 1 1 2 1 1 1 0 1 1 1 3 4 5 5 6 7 8 9 8 5 4 6 6 8 9 11 11 12 12 12 12 13 14 12 12 10 9 4 3 5 8 9 12 9 7 9 8 9 9 7 5 6 8 6 7 6 6 7 6
7 7 8 7 7 7 7 6 6 7 7 7 7 6 3 3 1 1 1 1 1 1 1 1 4 3 4 5 4 5 5 8 7 8 9 9 9 9 8 7 9 10 10 10 12 11 11 11 10 11 10 10 8 7 4 11 13 11 12 12 10 11 9 10 9 5 4 1 7 8 7 7 7 8
8 6 7 8 7 7 7 7 7 7 6 7 7 6 7 5 3 3 1 1 1 1 0 1 2 3 3 4 5 5 6 6 7 7 7 8 7 6 9 10 10 10 11 11 10 10 10 10 10 8 9 8 10 8 10 8 14 15 12 11 11 9 10 10 8 9 7 6 4 3 2 7 7 7
8 7 7 6 7 7 6 6 6 6 6 6 6 5 3 3 2 1 0 1 1 1 1 0 2 2 3 4 4 5 5 5 5 6 7 7 9 9 8 9 10 10 10 10 9 10 10 9 7 9 8 9 9 9 11 10 8 13 21 15 11 12 10 9 11 9 9 7 4 4 3 5 6 6
9 9 8 8 7 7 7 7 7 7 6 6 6 7 6 4 2 1 1 1 1 1 0 0 2 3 2 2 2 3 5 7 7 8 8 7 7 8 9 9 10 10 10 11 10 10 11 9 9 8 8 9 10 9 8 8 8 10 17 24 15 10 10 9 8 8 7 10 10 8 1 2 4 8
6 6 7 7 7 7 6 6 6 6 7 7 7 6 7 6 6 4 2 3 1 1 1 1 1 2 2 1 2 3 1 2 4 5 6 6 6 6 6 8 7 9 9 11 12 12 11 11 10 10 10 9 9 10 7 8 8 8 10 15 29 19 12 9 11 11 9 9 8 7 7 6 5 4
6 6 5 6 6 7 7 7 6 6 6 6 5 4 5 6 6 5 4 2 3 1 0 1 1 1 2 3 2 1 4 4 4 5 5 6 7 7 8 8 8 8 9 11 11 11 12 11 14 21 16 9 11 9 4 8 10 15 15 15 20 25 24 20 11 10 9 10 7 6 8 6 5 8
6 6 5 5 7 6 6 6 6 6 6 6 6 6 5 4 4 5 3 2 2 1 1 1 1 1 2 2 1 1 2 3 4 5 6 6 7 8 8 6 8 9 9 10 11 11 11 10 11 11 9 9 8 10 11 8 9 11 11 11 12 18 20 23 21 19 15 12 10 9 7 7 5 8
6 5 6 5 5 6 6 6 6 6 6 6 6 6 5 5 3 3 4 3 3 2 2 1 1 1 2 2 2 1 1 2 3 4 5 5 5 7 8 7 6 6 6 8 9 8 9 9 10 10 9 9 10 7 7 7 8 8 10 12 14 13 13 19 19 18 20 26 24 16 11 6 4 5
6 6 5 6 6 6 5 6 6 6 6 6 6 6 6 7 6 6 6 5 5 4 2 2 1 1 1 2 2 1 1 1 1 3 4 5 5 5 5 7 7 7 6 7 10 10 10 9 9 9 10 11 10 10 8 9 11 10 8 9 11 11 13 12 12 12 14 19 26 25 25 22 17 14
6 6 6 6 5 5 5 5 6 6 6 6 6 6 6 4 5 5 4 4 4 3 2 2 2 1 1 1 0 3 3 3 2 2 2 3 5 5 4 5 7 7 7 8 9 10 11 10 9 7 7 8 8 9 8 7 9 9 9 11 15 14 13 10 12 12 11 9 18 25 23 22 19 18
Wind_Direction
183 176 192 198 191 175 179 187 192 195 195 199 202 199 208 199 243 269 268 238 255 207 217 247 241 201 208 225 233 243 247 265 280 278 278 278 277 281 284 285 285 286 286 286 286 287 288 290 292 293 293 292 290 288 287 286 286 285 282 279 279 283 283 282 284 283 280 281 283 285 285 285 285 283
175 185 177 194 197 190 187 193 193 193 195 198 200 204 207 197 220 232 262 273 193 261 206 213 243 179 201 212 237 238 265 273 282 283 279 278 276 280 282 283 283 284 284 285 286 287 289 290 291 292 291 289 288 288 287 289 287 284 284 284 281 280 281 279 278 277 276 277 280 281 280 281 281 280
178 185 180 190 200 190 192 188 193 184 191 202 198 204 203 209 214 228 239 274 232 202 238 228 224 245 246 257 270 268 267 273 279 278 275 273 276 281 282 281 282 282 282 283 286 287 289 290 290 288 287 287 287 287 286 285 286 288 288 288 282 278 280 277 275 276 273 274 276 278 276 277 278 278
177 179 182 195 196 187 170 175 186 195 197 199 203 203 204 211 214 214 231 244 257 198 258 261 255 252 270 271 278 274 271 272 278 276 276 272 278 279 274 276 278 279 279 281 283 287 290 289 287 285 285 284 285 285 286 286 286 285 284 285 286 284 277 277 275 275 277 274 273 274 274 273 274 274
187 181 184 176 178 172 189 189 191 197 198 201 207 204 205 212 208 211 226 243 267 254 231 260 263 260 268 274 267 280 277 279 275 272 268 271 270 271 269 268 270 273 277 281 285 286 287 285 284 283 283 284 285 284 285 286 286 284 283 282 283 283 279 277 276 274 273 272 271 272 271 272 272 272
205 195 198 194 191 191 194 189 194 194 194 200 202 206 206 212 212 211 221 243 257 273 221 264 255 267 246 275 254 271 284 281 283 278 274 270 266 268 267 264 261 268 280 284 284 284 284 284 283 283 283 283 283 282 282 283 285 286 285 282 281 281 281 279 278 276 273 272 270 269 270 272 271 270
201 203 200 191 186 186 193 196 192 183 199 197 202 207 206 213 212 214 220 234 254 268 270 246 273 259 265 265 282 271 273 277 275 280 276 275 271 260 258 261 265 277 284 285 283 283 284 284 283 282 281 282 282 282 283 283 284 284 282 281 280 281 281 280 277 275 271 269 268 268 269 271 269 270
199 205 202 199 188 187 192 193 195 196 197 199 203 206 210 211 213 215 218 227 247 261 277 250 257 268 278 274 272 278 273 271 274 270 277 270 263 256 254 265 275 281 284 283 282 282 282 282 281 280 280 280 280 280 281 281 281 280 280 278 276 276 275 275 272 271 270 268 267 267 267 269 268 270
198 201 204 195 188 187 190 191 193 194 193 199 200 206 206 209 211 211 216 232 236 257 266 281 260 256 260 266 276 275 277 278 274 275 272 273 267 265 260 274 279 285 287 283 283 283 281 280 278 278 277 277 278 278 277 277 279 278 277 276 274 271 271 270 268 267 265 263 263 264 265 269 270 271
197 201 201 194 189 188 190 189 190 194 199 196 200 202 206 204 202 208 222 227 237 247 263 275 278 243 271 282 283 284 272 280 289 285 278 277 274 275 282 275 278 279 278 280 277 275 274 273 272 273 275 275 276 275 276 275 276 277 276 273 271 269 267 266 264 264 263 261 260 261 261 265 266 266
199 200 199 194 190 190 189 187 188 191 195 195 199 200 200 198 196 211 216 224 240 250 266 267 264 274 253 265 292 289 280 276 275 288 294 289 277 270 283 291 280 267 277 270 272 273 272 273 274 275 276 274 273 275 273 275 277 276 276 273 270 267 265 262 261 260 261 261 260 260 261 262 262 262
200 198 197 194 190 188 186 187 188 185 191 187 195 196 192 191 198 208 216 228 242 256 256 259 264 257 272 262 273 285 286 281 277 269 284 291 296 281 274 266 287 282 271 277 270 266 270 275 273 273 271 270 270 270 273 274 277 276 275 273 270 266 264 260 258 257 256 257 258 258 258 259 259 259
199 197 194 192 189 184 184 188 186 187 184 179 189 192 185 190 196 207 214 222 237 245 248 257 256 264 265 269 286 282 274 274 279 287 263 280 284 297 295 277 265 278 282 278 275 271 263 266 259 258 255 254 258 263 265 271 273 274 272 269 266 264 262 259 258 257 255 254 254 256 258 258 258 257
200 197 191 192 185 184 187 191 194 196 198 194 188 184 182 193 196 207 218 226 230 237 247 250 254 262 264 281 279 279 275 276 284 285 291 291 297 299 291 285 272 277 272 279 280 269 258 263 267 253 261 253 259 266 257 251 262 266 267 265 265 264 262 259 256 254 255 256 255 256 257 256 256 255
193 195 192 174 184 184 190 194 199 203 204 208 206 203 201 197 199 205 216 224 224 231 241 246 246 254 273 275 278 278 289 285 290 293 293 290 294 288 295 298 303 222 277 278 285 283 270 275 275 273 262 272 267 262 260 267 276 270 267 264 262 261 260 259 256 253 251 252 252 253 253 254 254 253
183 187 192 188 176 182 184 185 201 207 211 213 217 221 222 221 219 214 200 208 217 227 238 254 257 285 280 288 283 287 293 293 291 284 284 282 284 288 285 279 284 288 297 290 286 283 280 280 276 276 270 267 260 253 264 277 275 271 265 263 261 260 260 258 256 253 251 249 250 251 252 254 254 254
181 187 185 179 166 183 189 190 190 194 209 219 221 226 231 242 254 237 233 247 267 292 281 279 281 268 283 282 283 284 291 294 288 286 272 262 265 265 268 276 284 288 296 293 287 285 283 283 276 276 271 268 263 268 274 276 274 272 270 266 262 260 258 257 256 254 251 250 250 250 251 251 253 253
183 189 182 180 180 179 188 186 185 183 185 191 199 189 73 96 316 299 292 288 282 281 280 281 278 283 279 277 281 283 282 280 273 273 266 263 263 263 266 285 285 285 295 284 290 286 280 273 278 274 276 266 269 265 270 274 274 272 269 266 263 262 260 258 257 255 252 249 247 248 248 249 250 251
188 186 181 176 177 178 185 183 178 170 168 168 170 166 167 131 180 208 250 253 244 250 252 249 251 260 263 264 271 272 269 260 259 269 290 299 292 294 293 285 273 280 268 263 260 267 279 294 278 272 279 279 274 270 270 271 272 272 270 267 264 262 259 257 255 254 253 250 248 247 248 248 248 250
181 180 175 175 173 175 177 184 185 168 152 150 157 162 173 184 203 218 224 241 239 235 236 231 237 247 273 286 287 293 299 305 308 308 301 294 292 295 287 280 288 269 270 250 256 265 275 276 275 282 282 282 279 272 264 266 267 269 268 266 264 263 261 258 255 253 250 248 247 246 247 248 248 248
158 170 174 177 169 165 170 182 190 179 157 141 156 161 176 190 208 234 227 258 266 275 281 285 290 294 296 300 301 300 302 303 305 302 293 279 296 287 288 285 286 278 279 250 249 263 275 277 276 285 283 274 276 276 271 267 267 270 269 270 268 266 264 259 256 253 251 247 244 244 244 247 248 248
174 178 174 173 166 165 170 184 191 182 167 163 163 165 173 192 223 238 225 199 316 301 300 304 305 307 305 304 306 308 305 303 305 299 277 311 344 278 271 281 289 294 287 268 234 248 256 286 278 282 287 285 270 272 275 271 266 269 273 271 270 269 265 260 255 251 249 246 244 242 243 244 247 248
167 173 178 172 165 166 173 184 185 184 176 142 160 161 166 196 228 235 188 214 285 314 324 305 321 307 304 307 298 291 300 303 305 297 276 286 261 267 272 274 295 300 299 161 91 292 287 291 281 288 299 293 283 246 260 262 270 278 284 286 284 272 268 265 258 251 246 244 242 241 240 241 241 244
165 173 174 178 177 173 177 180 178 185 179 152 153 149 170 202 228 178 129 149 180 290 280 281 286 284 291 288 282 279 280 281 272 268 256 252 249 260 269 272 269 262 274 229 348 304 288 275 283 275 268 289 300 300 282 288 275 271 269 270 267 271 268 262 260 254 246 241 240 238 237 236 235 236
158 166 173 162 181 175 177 176 177 182 190 178 167 172 179 204 169 122 118 125 34 230 285 301 309 311 306 290 277 273 275 271 265 253 254 247 247 255 262 271 265 265 266 277 290 277 285 288 282 287 270 262 270 287 285 278 276 269 270 267 269 268 261 256 245 250 247 242 238 236 234 232 231 230
158 166 166 161 176 174 173 178 173 175 177 187 144 156 182 204 123 107 131 147 94 13 1 346 326 318 315 311 310 302 286 278 273 267 261 253 251 245 247 252 266 273 277 274 278 280 283 279 271 281 276 271 275 264 286 287 275 276 275 266 262 259 264 256 226 232 234 231 235 233 230 229 229 230
162 156 159 165 174 170 172 169 168 168 176 145 139 181 171 105 83 85 79 75 51 26 9 349 319 310 312 325 325 320 316 302 285 281 271 268 262 259 253 251 251 258 272 280 272 266 261 268 266 262 272 266 274 281 273 280 291 291 272 268 269 268 267 268 237 220 219 224 228 227 227 227 230 228
151 148 155 168 173 164 161 165 165 174 139 133 146 129 101 79 80 82 82 66 63 46 9 333 315 312 307 316 308 308 306 303 306 300 291 284 272 266 268 265 261 259 265 271 274 267 263 261 262 247 247 256 263 271 284 277 263 279 285 282 272 263 265 272 254 219 214 221 213 217 210 220 219 226
153 160 160 166 164 160 159 163 164 151 140 134 120 105 90 87 85 96 107 96 66 30 337 302 292 294 294 289 281 291 297 298 297 290 293 272 263 264 267 264 260 262 264 274 278 283 281 276 280 281 275 266 267 273 269 275 285 283 279 290 290 273 261 270 260 220 213 205 209 203 210 203 211 210
157 159 163 162 160 156 143 109 89 91 107 123 118 100 91 89 111 130 113 89 74 325 285 291 299 297 306 304 300 293 292 301 302 317 318 328 328 329 324 316 303 271 260 279 286 291 292 287 278 277 273 267 257 262 260 265 276 272 273 265 265 287 279 260 249 224 201 203 200 208 204 207 205 205
149 155 156 144 122 109 115 108 102 93 86 76 62 63 89 107 123 141 126 128 162 217 272 288 287 295 293 296 310 319 323 308 302 305 309 312 312 322 322 314 306 316 305 284 287 293 303 298 286 270 264 266 260 248 254 252 266 277 274 258 260 259 269 273 242 205 203 198 196 201 199 202 207 203
139 131 122 114 90 89 72 74 55 59 71 88 102 94 90 124 183 110 91 100 90 221 220 258 286 302 316 326 321 319 316 302 305 315 322 323 321 324 320 328 330 324 322 328 320 319 311 308 309 287 248 249 259 318 306 239 252 276 279 275 261 254 247 256 224 195 199 200 195 196 199 197 200 201
92 98 107 113 115 107 112 93 103 100 99 85 83 115 98 102 105 85 85 77 270 244 281 329 332 314 322 315 318 319 315 323 326 326 322 322 324 321 323 322 315 327 328 325 330 337 344 337 325 310 277 265 252 335 352 329 333 323 302 304 304 283 249 224 197 189 188 210 209 194 193 188 192 194
126 128 131 141 138 135 129 136 142 152 158 150 146 202 178 127 108 100 112 203 237 246 39 306 321 314 321 318 328 327 323 317 327 332 341 329 332 335 341 336 331 330 327 325 331 337 342 339 335 341 330 281 234 17 17 313 331 327 309 313 317 309 334 358 324 228 204 210 205 172 178 186 191 183
133 139 141 140 135 144 144 156 164 169 168 174 169 185 205 204 117 105 117 227 224 189 37 342 305 300 312 314 316 325 325 323 321 328 324 311 326 341 337 335 332 335 334 329 334 340 343 336 335 338 342 341 341 199 46 6 345 341 329 330 340 336 343 341 319 294 213 210 184 165 176 190 191 193
135 143 145 149 157 154 162 174 168 171 175 177 180 173 171 177 188 140 201 202 154 90 43 334 326 312 310 309 308 314 319 325 322 331 339 351 348 344 343 337 329 330 332 331 331 335 342 338 338 349 347 345 351 346 320 352 1 5 349 346 340 347 333 335 321 345 16 223 183 171 180 192 196 190
139 150 150 157 160 167 179 169 177 183 177 176 181 190 173 169 195 177 219 39 124 109 211 276 295 299 303 311 317 323 329 339 335 337 341 340 335 333 340 341 344 338 335 330 328 330 343 338 339 345 345 338 354 340 321 319 342 0 4 353 342 338 330 329 342 15 4 335 33 59 122 159 172 169
149 150 153 161 169 177 171 165 172 171 181 181 175 183 177 170 159 203 222 122 110 105 9 356 287 297 298 316 344 344 337 324 314 331 340 343 350 352 350 337 330 337 329 320 332 338 342 336 337 348 350 347 327 331 329 327 328 350 355 357 346 334 313 342 9 360 340 349 360 330 320 102 144 144
148 156 164 170 172 172 173 180 180 179 179 174 178 179 171 183 186 156 157 167 149 131 144 305 282 278 301 320 333 346 337 345 352 347 343 346 346 339 341 341 337 337 337 336 339 346 347 346 341 338 347 335 327 307 305 306 317 330 333 345 354 326 354 350 345 340 356 355 343 323 296 14 50 68
150 154 163 163 169 172 174 167 185 177 175 185 184 174 162 170 180 172 172 179 160 161 161 217 287 307 304 318 336 332 305 336 327 330 330 331 328 332 332 333 329 331 335 340 347 345 351 347 337 337 325 322 295 291 275 290 278 312 325 346 359 4 355 337 3 356 356 350 338 356 28 15 37 25
140 149 165 159 157 168 167 181 181 172 178 173 166 171 161 160 153 179 173 184 171 161 163 223 250 270 295 311 324 20 358 337 339 331 331 331 331 337 332 334 339 350 345 341 341 342 342 334 318 313 312 313 317 287 265 6 9 350 348 343 346 355 358 2 4 8 1 336 345 12 31 16 20 34
154 156 153 159 166 173 168 168 171 166 170 169 170 166 160 152 166 172 149 119 136 180 189 221 244 266 299 300 292 353 31 350 337 335 335 338 338 337 340 354 348 342 351 343 332 320 307 315 317 326 330 329 326 14 32 10 342 338 342 333 339 349 354 360 6 24 23 17 7 17 5 357 4 40
152 150 162 170 157 162 167 167 168 168 168 166 170 158 152 153 174 166 150 187 185 186 215 239 235 239 281 291 292 270 4 354 341 327 324 333 338 339 340 341 333 321 321 312 309 301 320 327 340 346 350 4 8 9 9 359 359 335 344 355 357 340 347 357 356 15 26 25 27 32 24 6 351 39
157 150 157 162 163 165 167 167 166 168 161 171 161 157 161 164 178 190 183 185 184 211 205 223 244 228 273 285 300 280 319 302 330 328 329 323 327 323 323 323 327 327 326 334 329 335 337 343 351 349 3 9 355 1 353 351 5 357 338 334 353 354 353 344 350 358 13 22 17 17 20 25 36 43
157 155 155 164 165 159 165 165 165 160 153 152 156 165 170 170 183 177 191 185 191 179 181 215 236 255 251 259 39 345 310 337 343 310 297 314 322 326 324 326 334 337 345 344 341 341 346 339 342 351 11 8 2 358 338 348 358 349 347 355 2 1 358 343 357 357 359 351 4 7 14 17 21 27